(280676) = 2005 EE185

Discovered at Kitt Peak on 2005-03-09 by Spacewatch.

Orbit

Orbit type: Main Belt

Note: WebGL enabled browser required.

epoch2023-02-25.0
epoch JD2460000.5
perihelion date2021-03-10.51214
perihelion JD2459284.01214
argument of perihelion (°)300.47854
ascending node (°)200.53945
inclination (°)16.85395
eccentricity0.1289917
perihelion distance (AU)2.7268511
Tisserand w.r.t. Jupiter3.1
ΔV w.r.t. Earth (km/sec)11.5
semimajor axis (AU)3.1306834
mean anomaly (°)127.48349
mean daily motion (°/day)0.17792830
aphelion distance (AU)3.535
period (years)5.54
P-vector [x]-0.76435579
P-vector [y]0.64475461
P-vector [z]0.00719228
Q-vector [x]-0.63672014
Q-vector [y]-0.75297729
Q-vector [z]-0.16617063
absolute magnitude15.61
phase slope0.15
uncertainty0
referenceMPO 745323
observations used425
oppositions14
arc length (days)7104
first opposition used2004
last opposition used2023
residual rms (arc-secs)0.71
perturbers coarse indicatorM-v
perturbers precise indicator003Ek
first observation date used2004-01-11.0
last observation date used2023-06-24.0
computer nameMPCLINUX
JD of orbit computation2456612.476855
perihelion JD uncertainty (days)3.0827E-04
argument of perihelion uncertainty (°)4.9834E-05
ascending node uncertainty (°)2.0016E-05
inclination uncertainty (°)9.8243E-06
eccentricity uncertainty 5.9911E-08
perihelion distance uncertainty (AU)2.0353E-07
Minimum Orbit Intersection Distances (in AU)
for orbit epoch: 2460000.5, reference: E2023-MD7
Mercury2.39307
Venus2.05034
Earth1.77949
Mars1.16808
Jupiter1.61319
Saturn6.04743
Uranus15.6627
Neptune26.4949

Observations

439 total observations over interval: 2004 01 11.16919 – 2023 06 24.306736
These data are available for download (format description).

Date (UT) J2000 RA J2000 Dec Magn Location Ref
2004 01 11.16919 05 56 07.86 -00 40 44.7 19.8   644 – Palomar Mountain/NEAT MPS 445844
2004 01 11.23209 05 56 05.14 -00 40 37.4 19.3   644 – Palomar Mountain/NEAT MPS 445844
2004 01 11.29774 05 56 02.29 -00 40 29.5 19.4   644 – Palomar Mountain/NEAT MPS 445844
2005 03 09.45236 13 25 00.32 -12 39 53.8 20.3 V 691 – Steward Observatory, Kitt Peak-Spacewatch MPS 129307
2005 03 09.47831 13 24 59.75 -12 39 43.1 20.2 V 691 – Steward Observatory, Kitt Peak-Spacewatch MPS 129307
2005 03 09.50384 13 24 59.17 -12 39 32.5 20.1 V 691 – Steward Observatory, Kitt Peak-Spacewatch MPS 129307
2005 03 13.41793 13 23 27.65 -12 11 16.6 20.0 V 691 – Steward Observatory, Kitt Peak-Spacewatch MPS 129307
2005 03 13.45450 13 23 26.65 -12 10 59.8 20.0 V 691 – Steward Observatory, Kitt Peak-Spacewatch MPS 129307
2005 03 13.51718 13 23 24.96 -12 10 31.1 20.3 V 691 – Steward Observatory, Kitt Peak-Spacewatch MPS 129307
2005 04 01.26955 13 12 51.85 -09 23 34.1 19.0 R 699 – Lowell Observatory-LONEOS MPS 130825
2005 04 01.29387 13 12 50.86 -09 23 19.9   699 – Lowell Observatory-LONEOS MPS 130825
2005 04 01.31821 13 12 49.79 -09 23 03.3   699 – Lowell Observatory-LONEOS MPS 130825
2005 04 01.34251 13 12 48.88 -09 22 49.6   699 – Lowell Observatory-LONEOS MPS 130825
2005 04 04.36426 13 10 48.59 -08 52 41.4 19.5   704 – Lincoln Laboratory ETS, New Mexico MPS 130825
2005 04 04.37435 13 10 48.13 -08 52 34.3 18.8   704 – Lincoln Laboratory ETS, New Mexico MPS 130825
2005 04 04.38445 13 10 47.81 -08 52 28.0 19.1   704 – Lincoln Laboratory ETS, New Mexico MPS 130825
2005 04 12.28663 13 05 30.82 -07 32 32.3 19.2   704 – Lincoln Laboratory ETS, New Mexico MPS 131772
2005 04 12.29742 13 05 30.40 -07 32 23.9 19.2   704 – Lincoln Laboratory ETS, New Mexico MPS 131772
2005 04 12.31954 13 05 29.60 -07 32 08.9 20.0   704 – Lincoln Laboratory ETS, New Mexico MPS 131772
2005 05 06.22926 12 52 37.17 -03 54 52.8 19.4 R G96 – Mt. Lemmon Survey MPS 133356
2005 05 06.23789 12 52 36.97 -03 54 49.0 19.6 R G96 – Mt. Lemmon Survey MPS 133356
2005 05 06.24652 12 52 36.74 -03 54 44.8 18.8 R G96 – Mt. Lemmon Survey MPS 133356
2005 05 06.25515 12 52 36.45 -03 54 40.9 18.6 R G96 – Mt. Lemmon Survey MPS 133356
2005 05 08.19062 12 51 56.70 -03 40 27.8 19.6 V 703 – Catalina Sky Survey MPS 134017
2005 05 08.19711 12 51 56.66 -03 40 25.3 19.2 V 703 – Catalina Sky Survey MPS 134017
2005 05 08.20357 12 51 56.55 -03 40 22.5 20.2 V 703 – Catalina Sky Survey MPS 134017
2005 05 08.20998 12 51 56.37 -03 40 19.0 19.4 V 703 – Catalina Sky Survey MPS 134017
2008 09 26.42577 03 20 55.32 +11 37 08.0   691 – Steward Observatory, Kitt Peak-Spacewatch MPS 259268
2008 09 26.44086 03 20 55.18 +11 37 02.3   691 – Steward Observatory, Kitt Peak-Spacewatch MPS 259268
2008 09 26.45594 03 20 55.02 +11 36 56.8   691 – Steward Observatory, Kitt Peak-Spacewatch MPS 259269
2008 10 01.42608 03 19 53.53 +11 04 44.2 20.5 V 691 – Steward Observatory, Kitt Peak-Spacewatch MPS 259269
2008 10 01.44372 03 19 53.17 +11 04 37.0 20.6 V 691 – Steward Observatory, Kitt Peak-Spacewatch MPS 259269
2008 10 01.46134 03 19 52.90 +11 04 30.0 20.7 V 691 – Steward Observatory, Kitt Peak-Spacewatch MPS 259269
2008 11 18.29774 02 50 52.83 +05 04 17.5 20.6 V 703 – Catalina Sky Survey MPS 265257
2008 11 18.30376 02 50 52.47 +05 04 15.9 20.1 V 703 – Catalina Sky Survey MPS 265257
2008 11 18.30988 02 50 52.26 +05 04 13.5 20.2 V 703 – Catalina Sky Survey MPS 265257
2008 11 18.31594 02 50 51.93 +05 04 09.9 20.5 V 703 – Catalina Sky Survey MPS 265257
2010 02 13.391375 09 11 28.107 -06 58 09.71 19.66 g F51 – Pan-STARRS 1, Haleakala MPS 319316
2010 02 13.399775 09 11 27.731 -06 58 06.15 19.59 g F51 – Pan-STARRS 1, Haleakala MPS 319316
2010 05 05.483898 09 15 42.26 +03 23 10.6   C51 – WISE MPS 341781
2010 05 05.616203 09 15 49.32 +03 23 36.7   C51 – WISE MPS 341781
2010 05 05.748506 09 15 56.39 +03 24 03.2   C51 – WISE MPS 341781
2010 05 05.880810 09 16 03.49 +03 24 28.5   C51 – WISE MPS 341782
2010 05 06.013115 09 16 10.58 +03 24 54.2   C51 – WISE MPS 341782
2010 05 06.079331 09 16 14.15 +03 25 06.9   C51 – WISE MPS 341782
2010 05 06.145419 09 16 17.71 +03 25 19.5   C51 – WISE MPS 341782
2010 05 06.211634 09 16 21.24 +03 25 32.0   C51 – WISE MPS 341782
2010 05 06.277723 09 16 24.84 +03 25 44.9   C51 – WISE MPS 341782
2010 05 06.343939 09 16 28.39 +03 25 57.1   C51 – WISE MPS 341782
2010 05 06.608547 09 16 42.763 +03 26 47.47   C51 – WISE MPS 903900
2010 05 06.740852 09 16 49.944 +03 27 12.13   C51 – WISE MPS 903900
2010 05 06.873155 09 16 57.142 +03 27 36.83   C51 – WISE MPS 903900
2011 04 28.52641 16 08 05.257 -07 12 08.72 20.6 g F51 – Pan-STARRS 1, Haleakala MPS 381187
2011 04 28.53886 16 08 04.805 -07 12 02.76 20.2 r F51 – Pan-STARRS 1, Haleakala MPS 381187
2011 04 28.54932 16 08 04.424 -07 11 58.04 20.2 r F51 – Pan-STARRS 1, Haleakala MPS 381187
2011 05 14.51856 15 57 16.716 -05 17 44.29 19.7 i F51 – Pan-STARRS 1, Haleakala MPS 385760
2011 05 14.53008 15 57 16.186 -05 17 39.80 19.8 i F51 – Pan-STARRS 1, Haleakala MPS 385760
2011 05 21.34131 15 52 11.60 -04 35 42.5 19.9 V G96 – Mt. Lemmon Survey MPS 383298
2011 05 21.34880 15 52 11.28 -04 35 39.8 19.9 V G96 – Mt. Lemmon Survey MPS 383298
2011 05 21.35629 15 52 10.92 -04 35 37.6 19.7 V G96 – Mt. Lemmon Survey MPS 383298
2011 05 21.36377 15 52 10.56 -04 35 34.7 19.9 V G96 – Mt. Lemmon Survey MPS 383298
2011 05 21.97996 15 51 43.04 -04 32 03.5   621 – Bergisch Gladbach MPS 383298
2011 05 21.99227 15 51 42.47 -04 31 59.9   621 – Bergisch Gladbach MPS 383298
2011 05 22.00151 15 51 42.07 -04 31 56.8 20.0 V 621 – Bergisch Gladbach MPS 383298
2011 05 22.37110 15 51 25.45 -04 29 50.6 19.7 V G96 – Mt. Lemmon Survey MPS 383298
2011 05 22.37807 15 51 25.16 -04 29 48.2 19.5 V G96 – Mt. Lemmon Survey MPS 383298
2011 05 22.38495 15 51 24.80 -04 29 46.1 19.7 V G96 – Mt. Lemmon Survey MPS 383298
2011 05 22.39194 15 51 24.48 -04 29 43.6 19.3 V G96 – Mt. Lemmon Survey MPS 383298
2012 08 12.37106 20 05 57.710 +02 18 54.75 20.6 r F51 – Pan-STARRS 1, Haleakala MPS 429984
2012 08 12.38149 20 05 57.311 +02 18 51.41 20.4 r F51 – Pan-STARRS 1, Haleakala MPS 429984
2012 08 12.39372 20 05 56.834 +02 18 47.31 20.6 g F51 – Pan-STARRS 1, Haleakala MPS 429984
2013 09 03.55720 00 34 17.929 +11 14 18.78 20.9 g F51 – Pan-STARRS 1, Haleakala MPS 476037
2013 09 03.56889 00 34 17.580 +11 14 15.30 20.7 g F51 – Pan-STARRS 1, Haleakala MPS 476037
2013 10 04.50071 00 15 17.774 +07 32 11.25 20.3 g F51 – Pan-STARRS 1, Haleakala MPS 482142
2013 10 04.51299 00 15 17.277 +07 32 05.09 20.4 g F51 – Pan-STARRS 1, Haleakala MPS 482142
2013 10 23.08448 00 04 23.36 +04 59 06.8 21.1 V 691 – Steward Observatory, Kitt Peak-Spacewatch MPS 483475
2013 10 23.14982 00 04 21.38 +04 58 36.3 21.2 V 691 – Steward Observatory, Kitt Peak-Spacewatch MPS 483475
2013 10 23.21226 00 04 19.51 +04 58 07.6 21.0 V 691 – Steward Observatory, Kitt Peak-Spacewatch MPS 483475
2013 10 26.21587 00 02 56.94 +04 35 15.1 20.7 V G96 – Mt. Lemmon Survey MPS 485083
2013 10 26.22107 00 02 56.81 +04 35 12.8 20.9 V G96 – Mt. Lemmon Survey MPS 485083
2013 10 26.22625 00 02 56.61 +04 35 10.8 20.5 V G96 – Mt. Lemmon Survey MPS 485083
2013 10 26.23145 00 02 56.50 +04 35 08.2 20.4 V G96 – Mt. Lemmon Survey MPS 485083
2014 11 04.54838 05 58 59.959 +04 55 13.81 19.9 i F51 – Pan-STARRS 1, Haleakala MPS 545521
2014 11 04.56072 05 58 59.820 +04 55 07.92 19.9 i F51 – Pan-STARRS 1, Haleakala MPS 545521
2014 11 04.58549 05 58 59.546 +04 54 56.36 19.9 i F51 – Pan-STARRS 1, Haleakala MPS 545521
2014 11 19.36860 05 53 58.13 +03 03 15.6 20.0 r G45 – Space Surveillance Telescope, Atom Site MPS 558037
2014 11 19.37834 05 53 57.81 +03 03 11.6 20.4 r G45 – Space Surveillance Telescope, Atom Site MPS 558037
2014 11 19.38248 05 53 57.64 +03 03 10.1 19.5 r G45 – Space Surveillance Telescope, Atom Site MPS 558037
2014 11 19.38831 05 53 57.45 +03 03 07.3 20.5 r G45 – Space Surveillance Telescope, Atom Site MPS 558037
2014 11 19.39249 05 53 57.33 +03 03 05.4 20.5 r G45 – Space Surveillance Telescope, Atom Site MPS 558037
2014 11 20.55020 05 53 21.358 +02 54 58.70 19.9 w F51 – Pan-STARRS 1, Haleakala MPS 547345
2014 11 20.56354 05 53 20.916 +02 54 53.08 19.9 w F51 – Pan-STARRS 1, Haleakala MPS 547345
